When you browse on this site, cookies collect data to enhance your experience and personalize the content and advertising you see.
Visit our Privacy Policy to learn more. By continuing to use the site, you agree to this use of cookies and data.
  • In Romania
  • List of Countries
  • For 7 days
  • Water Temperature
  • Satellite Maps
  • Weather Map
  • Weather Widgets
  • user-avatar
    Login

    Hourly Weather Viedma

    Today, 22 January, Tuesday

    Time Temperature Precipitation Wind Pressure Humidity
    00:00 +21°C° 0 mm 8 mps 751 mmHg 35%
    01:00 +21°C° 0 mm 8 mps 751 mmHg 37%
    02:00 +21°C° 0 mm 8 mps 750 mmHg 39%
    03:00 +21°C° 0 mm 7 mps 750 mmHg 39%
    04:00 +21°C° 0 mm 6 mps 750 mmHg 39%
    05:00 +21°C° 0 mm 5 mps 750 mmHg 39%
    06:00 +22°C° 0 mm 6 mps 750 mmHg 39%
    07:00 +23°C° 0 mm 7 mps 751 mmHg 40%
    08:00 +24°C° 0 mm 8 mps 751 mmHg 40%
    09:00 +24°C° 0 mm 8 mps 752 mmHg 36%
    10:00 +26°C° 0 mm 8 mps 753 mmHg 31%
    11:00 +27°C° 0 mm 8 mps 753 mmHg 27%
    12:00 +28°C° 0 mm 7 mps 753 mmHg 25%
    13:00 +28°C° 0 mm 6 mps 754 mmHg 23%
    14:00 +28°C° 0 mm 5 mps 754 mmHg 21%
    15:00 +28°C° 0 mm 5 mps 754 mmHg 22%
    16:00 +28°C° 0 mm 6 mps 754 mmHg 24%
    17:00 +27°C° 0 mm 6 mps 754 mmHg 25%
    18:00 +24°C° 0 mm 6 mps 755 mmHg 31%
    19:00 +22°C° 0 mm 6 mps 755 mmHg 38%
    20:00 +20°C° 0 mm 6 mps 756 mmHg 45%
    21:00 +20°C° 0 mm 5 mps 756 mmHg 48%
    22:00 +19°C° 0 mm 5 mps 757 mmHg 51%
    23:00 +19°C° 0 mm 4 mps 758 mmHg 54%

    Tomorrow, 23 January, Wednesday

    Time Temperature Precipitation Wind Pressure Humidity
    00:00 +18°C° 0 mm 4 mps 759 mmHg 57%
    01:00 +18°C° 0 mm 3 mps 759 mmHg 60%
    02:00 +17°C° 0 mm 3 mps 759 mmHg 63%
    03:00 +17°C° 0 mm 3 mps 760 mmHg 66%
    04:00 +17°C° 0 mm 3 mps 760 mmHg 68%
    05:00 +16°C° 0 mm 3 mps 760 mmHg 71%
    06:00 +18°C° 0 mm 3 mps 761 mmHg 63%
    07:00 +20°C° 0 mm 4 mps 761 mmHg 54%
    08:00 +22°C° 0 mm 5 mps 761 mmHg 46%
    09:00 +23°C° 0 mm 5 mps 761 mmHg 39%
    10:00 +26°C° 0 mm 5 mps 761 mmHg 32%
    11:00 +28°C° 0 mm 5 mps 761 mmHg 25%
    12:00 +29°C° 0 mm 5 mps 760 mmHg 24%
    13:00 +30°C° 0 mm 6 mps 760 mmHg 22%
    14:00 +32°C° 0 mm 7 mps 759 mmHg 20%
    15:00 +30°C° 0 mm 7 mps 759 mmHg 22%
    16:00 +29°C° 0 mm 8 mps 758 mmHg 23%
    17:00 +28°C° 0 mm 9 mps 757 mmHg 25%
    18:00 +26°C° 0 mm 9 mps 757 mmHg 32%
    19:00 +22°C° 0 mm 9 mps 757 mmHg 39%
    20:00 +19°C° 0 mm 9 mps 757 mmHg 46%
    21:00 +19°C° 0 mm 10 mps 757 mmHg 49%
    22:00 +19°C° 0 mm 10 mps 757 mmHg 52%
    23:00 +19°C° 0 mm 10 mps 757 mmHg 54%

    Day after tomorrow, 24 January, Thursday

    Time Temperature Precipitation Wind Pressure Humidity
    00:00 +19°C° 0 mm 10 mps 757 mmHg 55%
    01:00 +19°C° 0 mm 10 mps 756 mmHg 56%
    02:00 +19°C° 0 mm 9 mps 756 mmHg 58%
    03:00 +21°C° 0 mm 9 mps 755 mmHg 53%
    04:00 +21°C° 0 mm 8 mps 755 mmHg 49%
    05:00 +22°C° 0 mm 8 mps 755 mmHg 45%
    06:00 +23°C° 0 mm 8 mps 755 mmHg 42%
    07:00 +26°C° 0 mm 8 mps 755 mmHg 40%
    08:00 +28°C° 0 mm 9 mps 755 mmHg 37%
    09:00 +31°C° 0.1 mm 8 mps 754 mmHg 36%
    10:00 +32°C° 0.1 mm 8 mps 754 mmHg 36%
    11:00 +34°C° 0.1 mm 8 mps 754 mmHg 35%
    12:00 +37°C° 0.1 mm 8 mps 753 mmHg 33%
    13:00 +39°C° 0.1 mm 8 mps 752 mmHg 31%
    14:00 +41°C° 0.1 mm 8 mps 751 mmHg 29%
    15:00 +40°C° 0 mm 8 mps 751 mmHg 31%
    16:00 +40°C° 0 mm 9 mps 750 mmHg 33%
    17:00 +39°C° 0 mm 9 mps 749 mmHg 35%
    18:00 +38°C° 0.2 mm 7 mps 749 mmHg 38%
    19:00 +36°C° 0.2 mm 6 mps 748 mmHg 41%
    20:00 +35°C° 0.2 mm 4 mps 748 mmHg 45%
    21:00 +34°C° 1.3 mm 6 mps 748 mmHg 49%
    22:00 +33°C° 1.3 mm 8 mps 748 mmHg 54%
    23:00 +33°C° 1.3 mm 10 mps 748 mmHg 58%

    25 January, Friday

    Time Temperature Precipitation Wind Pressure Humidity
    00:00 +32°C° 0 mm 9 mps 748 mmHg 61%
    01:00 +32°C° 0 mm 8 mps 748 mmHg 63%
    02:00 +30°C° 0 mm 7 mps 748 mmHg 65%
    03:00 +30°C° 0 mm 7 mps 748 mmHg 67%
    04:00 +29°C° 0 mm 6 mps 748 mmHg 68%
    05:00 +29°C° 0 mm 6 mps 748 mmHg 70%
    06:00 +28°C° 0 mm 6 mps 749 mmHg 67%
    07:00 +27°C° 0 mm 6 mps 749 mmHg 65%
    08:00 +26°C° 0 mm 6 mps 750 mmHg 63%
    09:00 +27°C° 0 mm 7 mps 750 mmHg 55%
    10:00 +28°C° 0 mm 8 mps 750 mmHg 47%
    11:00 +29°C° 0 mm 8 mps 750 mmHg 39%
    12:00 +29°C° 0 mm 8 mps 750 mmHg 36%
    13:00 +29°C° 0 mm 8 mps 751 mmHg 34%
    14:00 +29°C° 0 mm 8 mps 751 mmHg 32%
    15:00 +28°C° 0 mm 8 mps 751 mmHg 35%
    16:00 +26°C° 0 mm 8 mps 752 mmHg 38%
    17:00 +24°C° 0 mm 8 mps 752 mmHg 40%
    18:00 +23°C° 0 mm 8 mps 753 mmHg 43%
    19:00 +21°C° 0 mm 8 mps 754 mmHg 46%
    20:00 +20°C° 0 mm 8 mps 755 mmHg 49%
    21:00 +20°C° 0 mm 7 mps 755 mmHg 49%
    22:00 +20°C° 0 mm 5 mps 756 mmHg 49%
    23:00 +20°C° 0 mm 4 mps 756 mmHg 49%

    26 January, Saturday

    Time Temperature Precipitation Wind Pressure Humidity
    00:00 +19°C° 0 mm 4 mps 756 mmHg 53%
    01:00 +19°C° 0 mm 4 mps 757 mmHg 57%
    02:00 +18°C° 0 mm 3 mps 757 mmHg 61%
    03:00 +18°C° 0 mm 3 mps 758 mmHg 62%
    04:00 +18°C° 0 mm 2 mps 758 mmHg 63%
    05:00 +17°C° 0 mm 2 mps 759 mmHg 64%
    06:00 +19°C° 0 mm 2 mps 759 mmHg 55%
    07:00 +20°C° 0 mm 2 mps 759 mmHg 47%
    08:00 +22°C° 0 mm 3 mps 760 mmHg 38%
    09:00 +24°C° 0 mm 3 mps 760 mmHg 34%
    10:00 +25°C° 0 mm 3 mps 760 mmHg 29%
    11:00 +27°C° 0 mm 4 mps 760 mmHg 25%
    12:00 +27°C° 0 mm 5 mps 760 mmHg 24%
    13:00 +28°C° 0 mm 5 mps 759 mmHg 23%
    14:00 +28°C° 0 mm 6 mps 759 mmHg 22%
    15:00 +28°C° 0 mm 7 mps 759 mmHg 23%
    16:00 +27°C° 0 mm 8 mps 759 mmHg 24%
    17:00 +26°C° 0 mm 8 mps 758 mmHg 25%
    18:00 +24°C° 0 mm 8 mps 759 mmHg 31%
    19:00 +22°C° 0 mm 8 mps 759 mmHg 37%
    20:00 +21°C° 0 mm 8 mps 759 mmHg 43%
    21:00 +20°C° 0 mm 8 mps 758 mmHg 47%
    22:00 +20°C° 0 mm 8 mps 758 mmHg 51%
    23:00 +20°C° 0 mm 8 mps 758 mmHg 54%

    27 January, Sunday

    Time Temperature Precipitation Wind Pressure Humidity
    00:00 +20°C° 0 mm 8 mps 757 mmHg 58%
    01:00 +19°C° 0 mm 9 mps 756 mmHg 61%
    02:00 +19°C° 0 mm 9 mps 756 mmHg 64%
    03:00 +20°C° 0 mm 8 mps 755 mmHg 67%
    04:00 +20°C° 0 mm 8 mps 755 mmHg 70%
    05:00 +20°C° 0 mm 8 mps 754 mmHg 73%
    06:00 +21°C° 0.3 mm 7 mps 754 mmHg 73%
    07:00 +21°C° 0.3 mm 7 mps 754 mmHg 73%
    08:00 +22°C° 0.3 mm 7 mps 754 mmHg 73%
    09:00 +23°C° 3.3 mm 7 mps 753 mmHg 73%
    10:00 +26°C° 3.3 mm 6 mps 752 mmHg 72%
    11:00 +27°C° 3.3 mm 6 mps 751 mmHg 72%
    12:00 +30°C° 3.4 mm 7 mps 750 mmHg 64%
    13:00 +33°C° 3.4 mm 8 mps 749 mmHg 56%
    14:00 +37°C° 3.4 mm 8 mps 748 mmHg 48%
    15:00 +35°C° 1.7 mm 8 mps 748 mmHg 47%
    16:00 +34°C° 1.7 mm 7 mps 748 mmHg 46%
    17:00 +32°C° 1.7 mm 6 mps 748 mmHg 45%
    18:00 +29°C° 0 mm 7 mps 749 mmHg 48%
    19:00 +26°C° 0 mm 7 mps 750 mmHg 51%
    20:00 +23°C° 0 mm 7 mps 751 mmHg 54%
    21:00 +22°C° 0 mm 6 mps 752 mmHg 58%
    22:00 +21°C° 0 mm 4 mps 753 mmHg 62%
    23:00 +20°C° 0 mm 3 mps 754 mmHg 66%
    Show more